Location: *
(53.9002°N, 27.5624°E)
Time: 07:14:58
(UTC+00:00)

CZ-2D R/B - Pass Details

Date: 12 November 2019
Orbit: 521 x 540 km, 97.4° (Epoch: 15 December)

Event Time Altitude Azimuth Distance (km) Brightness Sun altitude
Exits shadow 15:44:12 19° 97° (E) 1,332 4.7 -12.8°
Maximum altitude 15:45:45 24° 63° (ENE) 1,145 4.4 -13.1°
Drops below altitude 10° 15:48:56 10° 8° (N) 1,813 5.8 -13.5°
Sets 15:51:19 0° 355° (N) 2,707 6.8 -13.9°
